Hourly Data Report for October 28, 2014

All times are specified in Local Standard Time (LST). Add 1 hour to adjust for Daylight Saving Time where and when it is observed.

CHARLOTTETOWN A
PRINCE EDWARD ISLAND

46°17'21.000" N
63°07'09.000" W
48.50 m
8300301
71706
YYG

Download Data

Hourly Data (October 2014)
Hourly Data Report for October 28, 2014
Temp Definition
°C
Dew Point Temp Definition
°C
Rel Hum Definition
%
Wind Dir Definition
10's deg

Wind Spd Definition
km/h
Visibility Definition
km
Stn Press Definition
kPa
Hmdx Definition


Wind Chill Definition


Weather Definition


TIME
00:00 Legend Double Dagger 5.8 3.8 87 32 29 24.1 99.86     LegendNANA
01:00 Legend Double Dagger 5.7 3.1 83 32 33 24.1 99.98     LegendNANA
02:00 Legend Double Dagger 5.3 3.5 88 32 33 9.7 100.07     Rain Showers,Fog
03:00 Legend Double Dagger 5.7 3.4 85 33 29 24.1 100.16     LegendNANA
04:00 Legend Double Dagger 5.5 4.2 91 34 27 12.9 100.31     Rain Showers
05:00 Legend Double Dagger 5.4 4.2 92 34 16 9.7 100.43     Rain Showers,Fog
06:00 Legend Double Dagger 5.4 4.5 94 33 17 8.1 100.55     Rain Showers,Fog
07:00 Legend Double Dagger 5.4 4.4 93 33 23 9.7 100.67     Rain Showers,Fog
08:00 Legend Double Dagger 5.6 4.7 94 34 17 8.1 100.82     Rain Showers,Fog
09:00 Legend Double Dagger 6.0 5.1 94 35 17 9.7 100.92     Rain Showers,Fog
10:00 Legend Double Dagger 6.3 5.0 91 36 21 9.7 100.98     Rain Showers,Fog
11:00 Legend Double Dagger 7.2 4.7 84 35 19 12.9 101.03     Rain Showers
12:00 Legend Double Dagger 6.5 5.0 90 34 14 12.9 101.12     Rain Showers
13:00 Legend Double Dagger 6.4 4.4 87 35 20 16.1 101.15     Rain Showers
14:00 Legend Double Dagger 6.1 4.9 92 1 15 16.1 101.19     Rain Showers
15:00 Legend Double Dagger 6.0 5.0 93 35 10 11.3 101.26     Rain Showers
16:00 Legend Double Dagger 6.0 4.3 89 34 10 16.1 101.28     Rain Showers
17:00 Legend Double Dagger 6.1 3.6 84 35 7 19.3 101.35     Mostly Cloudy
18:00 Legend Double Dagger 5.8 3.8 87 1 7 19.3 101.37     LegendNANA
19:00 Legend Double Dagger 6.1 3.6 84 27 3 24.1 101.44     LegendNANA
20:00 Legend Double Dagger 5.9 3.8 86 31 3 24.1 101.43     Cloudy
21:00 Legend Double Dagger 5.8 3.8 87 23 5 24.1 101.47     LegendNANA
22:00 Legend Double Dagger 5.8 4.1 89 0 1 24.1 101.45     LegendNANA
23:00 Legend Double Dagger 5.8 3.7 86 17 8 24.1 101.45     Cloudy

Notes on Data Quality.

Legend

  • E = Estimated
  • M = Missing
  • NA = Not Available
  • ‡ = Partner data that is not subject to review by the National Climate Archives
Date modified: